Rockland, ME

9:16 PM EDT on June 26, 2017 (GMT -0400)
Knox County Regional

Weather History for KRKD - May, 2013

Change the Weather History Date:

Tuesday, May 21, 2013

  Actual Average Record
Temperature  
Mean Temperature 48 °F -  
Max Temperature 51 °F 56 °F 70 °F (2016)
Min Temperature 46 °F 41 °F 36 °F (2017)
Degree Days  
Heating Degree Days 16    
Moisture  
Dew Point 47 °F    
Average Humidity 94    
Maximum Humidity 100    
Minimum Humidity 93    
Precipitation  
Precipitation 0.22 in - - ()
Sea Level Pressure  
Sea Level Pressure 30.03 in    
Wind  
Wind Speed 6 mph (East)    
Max Wind Speed 14 mph    
Max Gust Speed 16 mph    
Visibility 9 miles    
Events      
Averages and records for this station are not official NWS values.
T = Trace of Precipitation, MM = Missing Value Source: NWS Daily Summary

Daily Weather History Graph

Daily Weather History Graph

Search for Another Location

Airport or City:

Trip Planner

Search our weather history database for the weather conditions in past years. The results will help you decide how hot, cold, wet, or windy it might be!

Date:

Astronomy

May. 21, 2013 Rise Set
Actual Time 5:04 AM EDT 8:02 PM EDT
Civil Twilight 4:29 AM EDT 8:36 PM EDT
Nautical Twilight 3:46 AM EDT 9:20 PM EDT
Astronomical Twilight 2:54 AM EDT 10:12 PM EDT
Moon 4:05 PM EDT (5/21) 2:38 AM EDT (5/21)
Length of Visible Light 16h 07m
Length of Day
14h 58m
Waxing Gibbous, 84% of the Moon is Illuminated
May 21
Waxing Gibbous
May 25
Full
May 31
Last Quarter
Jun 8
New
Jun 16
First Quarter

Hourly Weather History & Observations

Time (EDT) Temp. Windchill Dew Point Humidity Pressure Visibility Wind Dir Wind Speed Gust Speed Precip Events Conditions
12:15 AM 51.8 °F - 51.8 °F 100% 30.00 in 7.0 mi ENE 4.6 mph - N/A   Overcast
12:35 AM 51.8 °F - 51.8 °F 100% 30.01 in 10.0 mi ENE 3.5 mph - N/A   Overcast
12:55 AM 51.8 °F - 50.0 °F 94% 30.01 in 10.0 mi NE 5.8 mph - N/A   Overcast
1:15 AM 51.8 °F - 50.0 °F 94% 30.02 in 10.0 mi NE 6.9 mph - N/A   Overcast
1:35 AM 51.8 °F - 51.8 °F 100% 30.02 in 10.0 mi NE 6.9 mph - N/A   Overcast
1:55 AM 51.8 °F - 51.8 °F 100% 30.01 in 10.0 mi East 4.6 mph - N/A   Overcast
2:15 AM 51.8 °F - 50.0 °F 94% 30.01 in 3.0 mi ESE 4.6 mph - N/A   Overcast
2:35 AM 51.8 °F - 50.0 °F 94% 30.01 in 10.0 mi ESE 5.8 mph - N/A   Overcast
2:55 AM 48.2 °F - 48.2 °F 100% 30.02 in 10.0 mi SE 3.5 mph - N/A   Overcast
3:15 AM 48.2 °F - 48.2 °F 100% 30.00 in 10.0 mi ESE 4.6 mph - N/A   Overcast
3:35 AM 48.2 °F - 46.4 °F 93% 30.01 in 10.0 mi SSE 3.5 mph - N/A   Overcast
3:55 AM 48.2 °F - 46.4 °F 93% 30.01 in 10.0 mi East 4.6 mph - N/A   Overcast
4:15 AM 48.2 °F - 46.4 °F 93% 30.00 in 10.0 mi East 5.8 mph - N/A   Overcast
4:35 AM 48.2 °F - 46.4 °F 93% 30.00 in 9.0 mi ESE 6.9 mph - N/A   Overcast
4:55 AM 48.2 °F - 46.4 °F 93% 29.99 in 5.0 mi ESE 5.8 mph - N/A   Overcast
5:15 AM 48.2 °F - 46.4 °F 93% 29.99 in 8.0 mi East 4.6 mph - N/A   Overcast
5:35 AM 48.2 °F - 46.4 °F 93% 30.00 in 10.0 mi ESE 5.8 mph - N/A   Overcast
5:55 AM 48.2 °F - 46.4 °F 93% 30.00 in 10.0 mi ESE 4.6 mph - N/A   Overcast
6:15 AM 48.2 °F - 46.4 °F 93% 30.01 in 10.0 mi East 6.9 mph - N/A   Overcast
6:35 AM 48.2 °F - 46.4 °F 93% 30.01 in 10.0 mi East 8.1 mph - N/A   Overcast
6:55 AM 48.2 °F - 46.4 °F 93% 30.00 in 10.0 mi East 8.1 mph - N/A   Overcast
7:15 AM 48.2 °F - 46.4 °F 93% 30.01 in 10.0 mi East 5.8 mph - N/A   Overcast
7:35 AM 48.2 °F - 46.4 °F 93% 30.00 in 10.0 mi East 10.4 mph - N/A   Overcast
7:55 AM 48.2 °F - 46.4 °F 93% 30.02 in 10.0 mi ESE 8.1 mph - N/A   Overcast
8:15 AM 48.2 °F - 46.4 °F 93% 30.02 in 10.0 mi East 6.9 mph - N/A   Overcast
8:35 AM 48.2 °F - 46.4 °F 93% 30.01 in 10.0 mi East 9.2 mph - N/A   Overcast
8:55 AM 48.2 °F - 46.4 °F 93% 29.98 in 6.0 mi East 11.5 mph - 0.03 in   Overcast
9:15 AM 46.4 °F 41.9 °F 44.6 °F 93% 30.01 in 10.0 mi East 9.2 mph - 0.01 in   Overcast
9:35 AM 46.4 °F 41.9 °F 46.4 °F 100% 30.02 in 10.0 mi ESE 9.2 mph - 0.01 in   Overcast
9:55 AM 48.2 °F - 46.4 °F 93% 30.01 in 10.0 mi ESE 11.5 mph - 0.03 in   Overcast
10:15 AM 46.4 °F 42.4 °F 46.4 °F 100% 30.03 in 10.0 mi East 8.1 mph - N/A   Overcast
10:35 AM 46.4 °F 41.9 °F 46.4 °F 100% 30.02 in 10.0 mi East 9.2 mph - N/A   Overcast
10:56 AM 46.4 °F 42.9 °F 46.4 °F 100% 30.04 in 10.0 mi ENE 6.9 mph - N/A   Overcast
11:15 AM 48.2 °F - 46.4 °F 93% 30.04 in 7.0 mi East 6.9 mph - N/A   Overcast
11:35 AM 48.2 °F - 46.4 °F 93% 30.04 in 6.0 mi ENE 8.1 mph - N/A   Overcast
11:55 AM 48.2 °F - 46.4 °F 93% 30.04 in 8.0 mi NE 6.9 mph - N/A   Overcast
12:15 PM 48.2 °F - 46.4 °F 93% 30.05 in 9.0 mi NE 3.5 mph - N/A   Overcast
12:35 PM 48.2 °F - 46.4 °F 93% 30.05 in 9.0 mi ENE 5.8 mph - N/A   Overcast
12:55 PM 48.2 °F - 46.4 °F 93% 30.03 in 6.0 mi ENE 6.9 mph - 0.03 in   Overcast
1:15 PM 48.2 °F - 46.4 °F 93% 30.03 in 10.0 mi ENE 10.4 mph - N/A   Overcast
1:35 PM 48.2 °F - 46.4 °F 93% 30.03 in 10.0 mi ENE 9.2 mph - N/A   Overcast
1:55 PM 48.2 °F - 46.4 °F 93% 30.02 in 9.0 mi ENE 9.2 mph - N/A   Overcast
2:15 PM 48.2 °F - 46.4 °F 93% 30.01 in 8.0 mi ENE 13.8 mph - N/A   Overcast
2:35 PM 48.2 °F - 46.4 °F 93% 30.02 in 5.0 mi NE 10.4 mph - N/A   Overcast
2:55 PM 48.2 °F - 46.4 °F 93% 30.03 in 4.0 mi NE 11.5 mph - 0.01 in   Overcast
3:15 PM 48.2 °F - 46.4 °F 93% 30.03 in 3.0 mi NE 9.2 mph - N/A   Overcast
3:35 PM 48.2 °F - 48.2 °F 100% 30.04 in 2.5 mi NE 9.2 mph 16.1 mph 0.02 in   Overcast
4:15 PM 48.2 °F - 48.2 °F 100% 30.03 in 6.0 mi ENE 10.4 mph - N/A   Overcast
4:55 PM 48.2 °F - 46.4 °F 93% 30.03 in 10.0 mi East 10.4 mph - N/A   Overcast
5:15 PM 48.2 °F - 46.4 °F 93% 30.03 in 10.0 mi ENE 9.2 mph - N/A   Overcast
5:35 PM 48.2 °F - 46.4 °F 93% 30.03 in 10.0 mi ENE 8.1 mph - N/A   Overcast
5:55 PM 48.2 °F - 46.4 °F 93% 30.04 in 10.0 mi ENE 5.8 mph - N/A   Overcast
6:15 PM 48.2 °F - 46.4 °F 93% 30.05 in 10.0 mi East 6.9 mph - N/A   Overcast
6:35 PM 48.2 °F - 46.4 °F 93% 30.06 in 10.0 mi NE 5.8 mph - N/A   Overcast
6:55 PM 48.2 °F - 46.4 °F 93% 30.04 in 10.0 mi ENE 8.1 mph - N/A   Overcast
7:15 PM 48.2 °F - 46.4 °F 93% 30.05 in 10.0 mi ENE 5.8 mph - N/A   Overcast
7:35 PM 48.2 °F - 46.4 °F 93% 30.05 in 10.0 mi East 6.9 mph - N/A   Overcast
7:55 PM 48.2 °F - 46.4 °F 93% 30.05 in 10.0 mi East 5.8 mph - N/A   Overcast
8:15 PM 48.2 °F - 46.4 °F 93% 30.05 in 10.0 mi East 5.8 mph - N/A   Overcast
8:35 PM 48.2 °F - 46.4 °F 93% 30.06 in 10.0 mi East 6.9 mph - N/A   Overcast
8:55 PM 48.2 °F - 46.4 °F 93% 30.07 in 10.0 mi ENE 4.6 mph - N/A   Overcast
9:15 PM 48.2 °F - 46.4 °F 93% 30.07 in 10.0 mi ENE 6.9 mph - N/A   Overcast
9:35 PM 48.2 °F - 46.4 °F 93% 30.06 in 10.0 mi ENE 6.9 mph - N/A   Overcast
9:55 PM 48.2 °F - 46.4 °F 93% 30.05 in 10.0 mi ENE 5.8 mph - N/A   Overcast
10:15 PM 48.2 °F - 46.4 °F 93% 30.05 in 10.0 mi ENE 5.8 mph - N/A   Overcast
10:35 PM 48.2 °F - 46.4 °F 93% 30.04 in 10.0 mi ENE 8.1 mph - N/A   Overcast
10:55 PM 48.2 °F - 46.4 °F 93% 30.04 in 10.0 mi East 6.9 mph - N/A   Overcast
11:15 PM 48.2 °F - 46.4 °F 93% 30.02 in 9.0 mi East 5.8 mph - N/A   Overcast
11:35 PM 48.2 °F - 46.4 °F 93% 30.03 in 4.0 mi ENE 6.9 mph - 0.03 in   Overcast
11:55 PM 48.2 °F - 46.4 °F 93% 30.06 in 4.0 mi NNW 5.8 mph - 0.10 in   Overcast